Regional Weather Roundup
Issued by NWS

Home | Current Version | Previous Version | Graphics & Text | Print | Product List | Glossary On
Versions: 1 2 3 4 5 6 7 8 9 10 11 12 13 14 15 16 17 18 19 20 21 22 23 24 25 26 27 28 29 30 31 32 33 34 35 36 37 38 39 40 41 42 43 44 45 46 47 48 49 50
739
ASUS43 KLOT 310409
RWRIL

ILLINOIS REGIONAL WEATHER ROUNDUP
NATIONAL WEATHER SERVICE CHICAGO/ROMEOVILLE IL
1100 PM CDT TUE AUG 30 2016

NOTE: "FAIR" INDICATES FEW OR NO CLOUDS BELOW 12,000 FEET WITH NO
SIGNIFICANT WEATHER AND/OR OBSTRUCTIONS TO VISIBILITY.

* THESE STATIONS ARE NOT UNDER NWS QUALITY CONTROL. THEY ALSO MAY NOT
  REPORT WEATHER SUCH AS PRECIPITATION OR FOG.

ILZ001-002-007-009-015-016-024-310500-
NORTHWEST ILLINOIS

CITY           SKY/WX    TMP DP  RH WIND       PRES   REMARKS
MOLINE         MOCLDY    73  69  87 CALM      30.08S
STERLING*      MOCLDY    72  71  97 CALM      30.08S
SAVANNA*       MOCLDY    71  70  98 CALM      30.09S FOG
$$

ILZ003-004-008-010-011-017-018-310500-
NORTH CENTRAL ILLINOIS

CITY           SKY/WX    TMP DP  RH WIND       PRES   REMARKS
ROCKFORD       CLOUDY    71  68  90 CALM      30.09S
FREEPORT*      CLOUDY    66  65  97 CALM      30.11S
ROCHELLE*      CLOUDY    69  69  99 CALM      30.09S
DE KALB*       CLOUDY    70  69  96 CALM      30.09S
$$

ILZ005-006-012>014-019>023-310500-
NORTHEAST ILLINOIS

CITY           SKY/WX    TMP DP  RH WIND       PRES   REMARKS
CHICAGO-OHARE  CLOUDY    73  68  84 W3        30.06R
CHICAGO-MIDWAY CLOUDY    76  67  73 NW5       30.06R
AURORA         CLOUDY    70  67  90 NW3       30.08R
LANSING*       PTCLDY    74  72  93 CALM      30.06S
JOLIET*        CLOUDY    74  72  92 CALM      30.07R
WAUKEGAN       CLOUDY    71  68  90 W3        30.05S
DUPAGE AIRPORT CLOUDY    72  67  84 CALM      30.07R
KANKAKEE*      CLOUDY    74  73  96 CALM      30.07S
WHEELING       CLOUDY    73  68  84 W3        30.08R
MORRIS*        CLOUDY    71  69  95 CALM      30.06S
ROMEOVILLE*    CLOUDY    72  71  97 NW5       30.07S
NORTHERLY ISL    N/A     72  68  87 NW2         N/A
$$

LMZ740>746-310500-
SOUTHERN LAKE MICHIGAN

STATION/POSITION SKY/WX   TEMP    WIND        PRES    VSBY  WAVE
                          AIR SEA DIR/SP/G                  HT/PER
                          (F)     (DEG/KT/KT) (MB)    (MI)  (FT/S)
SOUTHERN BUOY              74 75  250/  8/  8 1016.9R         1
WILMETTE HARBOR            72 74  320/  2/  4   N/A           0
HARRISON CRIB              74      40/  5/  5   N/A
BURNHAM HARBOR             72     360/  1/  5   N/A
CALUMET HARBOR             74     260/  1/  2 1017.3S
BURNS HARBOR               74      CALM  /  6 1018.3R
MICHIGAN CITY              72      20/  3/  4   N/A
MICHIGAN CITY 6N           74 76   10/  4/  6   N/A           1/ 3
ST. JOSEPH                 73 75  140/  2/  2 1017.2F         1
$$

ILZ025>027-034>036-040-047-049-050-058-095>099-310500-
WEST-CENTRAL ILLINOIS

CITY           SKY/WX    TMP DP  RH WIND       PRES   REMARKS
QUINCY         PTCLDY    72  70  93 CALM      30.09S FOG
GALESBURG*     CLOUDY    72  71  96 CALM      30.09S
MACOMB*        PTCLDY    70  70  98 NW6       30.11S
JACKSONVILLE*  PTCLDY    71  70  96 CALM      30.08F FOG
PITTSFIELD*    MOCLDY    71  71  99 CALM      30.11R
$$

ILZ028>032-037-038-041>044-048-051>054-059>061-310500-
CENTRAL ILLINOIS

CITY           SKY/WX    TMP DP  RH WIND       PRES   REMARKS
PONTIAC        CLOUDY    71  71 100 CALM      30.07F FOG
BLOOMINGTON    PTCLDY    72  71  97 W5        30.09S
DECATUR        CLOUDY    73  69  87 CALM      30.08S
PEORIA         PTCLDY    74  74 100 W3        30.08S
LACON*         MOCLDY    72  71  97 CALM      30.06S
LINCOLN*       CLOUDY    74  73  94 CALM      30.07S
SPRINGFIELD    PTCLDY    72  70  93 SW5       30.08S
TAYLORVILLE    PTCLDY    70  70 100 CALM      30.08S FOG
$$

ILZ033-039-045-046-055>057-062-063-310500-
EAST-CENTRAL ILLINOIS

CITY           SKY/WX    TMP DP  RH WIND       PRES   REMARKS
CHAMPAIGN      PTCLDY    71  69  93 CALM      30.07F
RANTOUL*       PTCLDY    73  72  97 W3        30.07S FOG
MATTOON        CLEAR     72  67  84 N3        30.07S
PARIS*         MOCLDY    70  70 100 CALM      30.07F
$$

ILZ079-100>102-310500-
SOUTHWEST ILLINOIS

CITY           SKY/WX    TMP DP  RH WIND       PRES   REMARKS
ALTON          CLOUDY    70  70 100 CALM      30.09S FOG
BELLEVILLE     CLEAR     73  73 100 VRB1      30.07S
CAHOKIA*       CLEAR     72  70  93 CALM      30.08S FOG
SPARTA*        CLEAR     72  71  96 CALM      30.09R
$$

ILZ064>066-069>071-074>076-080>082-084>086-088>090-092>094-310500-
SOUTH-CENTRAL ILLINOIS

CITY           SKY/WX    TMP DP  RH WIND       PRES   REMARKS
CARBONDALE     CLEAR     71  69  93 CALM      30.07R
CAIRO*         CLEAR     75  70  84 N5        30.04S
EFFINGHAM*     CLEAR     74  73  99 CALM      30.08F
MARION         CLEAR     75  72  88 CALM      30.07S
MT. VERNON     CLEAR     75  68  78 CALM      30.07S
CENTRALIA*     CLEAR     75  74  96 CALM      30.07S
SALEM*         CLEAR     73  71  93 CALM      30.07F FOG
METROPOLIS*    CLEAR     77  74  88 CALM      30.05R
$$

ILZ067-068-072-073-078-083-087-091-310500-
SOUTHEAST ILLINOIS

CITY           SKY/WX    TMP DP  RH WIND       PRES   REMARKS
LAWRENCEVILLE  PTCLDY    74  74 100 CALM      30.07R
FLORA*         PTCLDY    75  73  91 N3        30.07S
FAIRFIELD*       N/A     74  73  95 CALM      30.05S
HARRISBURG*    CLEAR     77  74  90 N8        30.06S
ROBINSON*      PTCLDY    70  69  99 CALM      30.07F
CARMI*         MOCLDY    76  74  92 N5        30.05S
$$

ABBREVIATIONS USED IN REMARKS
   TC - TEMPERATURE IN CELSIUS
  WCI - WIND CHILL INDEX
   HX - HEAT INDEX
  VSB - VISIBILITY
$$





USA.gov is the U.S. government's official web portal to all federal, state and local government web resources and services.